www.pogodaiklimat.ru

Погода и климат >> Архив погоды >> Гана >> Навронго


ПОГОДА в Навронго

  • Прогноз погоды в Навронго
  • Монитор погоды в Навронго

АРХИВ ПОГОДЫ в Навронго

Время (UTC), дата Ветер
(напр.,м/с)
 
Видим.   Явления Облачность Т
(С)
Тd
(С)
f
(%)
Тe
(С)
Тes
(С)
Комфортность P
(гПа)
Po
(гПа)
Тmin
(С)
Tmax
(С)
R
(мм)
R24
(мм)
S
(см)
18 16.07 ЮЗ 1 12 км 9/6 360 м
[Cu Sc Ac trans]
+30.0 +24.1 71 +42 +42 опасность
перегрева
1011.5 988.6 +31.0
21 16.07 ЮЗ 1 12 км 9/0
[Ac trans]
+28.2 +25.8 87 +42 +42 опасность
перегрева
1013.1 990.0
00 17.07 ЮЗ 2 10 км гроза, ливневой дождь 9/8 330 м
[Cb cap Ac trans]
+25.5 +24.1 92 +35 +35 очень
душно
1013.6 990.3 0.5
06 17.07 СЗ 2 12 км гроза без осадков 9/6 360 м
[Cb cap Ac trans]
+23.5 +22.8 96 +31 +31 очень
душно
1014.7 991.2 +22.9 5
09 17.07 Ю 1 12 км {гроза} 3/3 480 м
[Cu hum]
+26.5 +24.1 87 +37 +46 очень
душно
1016.8 993.5
12 17.07 СЗ 2 12 км 8/8 500 м
[Cu med, cong]
+30.0 +24.8 74 +43 +48 опасность
перегрева
1015.9 992.9
15 17.07 ЮЗ 2 12 км 8/8 500 м
[Cu med, cong]
+32.0 +24.7 65 +45 +47 опасность
перегрева
1013.1 990.3
18 17.07 ЮЗ 1 12 км 6/3 500 м
[Cb cap Ac trans Ci fib]
+31.5 +22.6 59 +41 +41 опасность
перегрева
1010.9 988.1 +32.0
21 17.07 ЮЗ 2 12 км ясно +28.5 +23.8 76 +39 +39 очень
душно
1012.4 989.4
06 18.07 ЮЗ 1 12 км 9/5 360 м
[Sc Ac trans]
+25.5 +23.2 87 +34 +34 очень
душно
1012.9 989.6 +24.1
09 18.07 СВ 3 10 км гроза, ливневой дождь 9/8 330 м
[Cb cap Ac trans]
+22.5 +20.8 90 +29 +31 очень
душно
1015.5 991.9
12 18.07 ЮЗ 1 12 км в посл. час гроза {дождь} 9/5 360 м
[Sc Ac As]
+25.7 +23.0 85 +34 +40 очень
душно
1014.9 991.6 16
15 18.07 ЮЗ 1 12 км 9/5 360 м
[Sc Ac As]
+29.2 +24.0 74 +41 +44 опасность
перегрева
1012.0 989.0
18 18.07 СВ 1 12 км 9/9 90 м
[]
+28.0 +23.4 76 +38 +38 очень
душно
1011.2 988.2 +29.5 16
21 18.07 ЮВ 1 12 км 9/9 360 м
[Sc]
+26.5 +21.1 72 +33 +33 очень
душно
1013.2 990.0
00 19.07 ЮЗ 1 12 км 9/0
[Ac trans]
+24.5 +22.1 86 +32 +32 очень
душно
1012.4 989.1
06 19.07 ЮВ 1 12 км {дождь} 9/3 360 м
[Sc Ac trans]
+23.0 +21.3 90 +31 +31 очень
душно
1013.4 989.9 +21.5 18
09 19.07 ЮЗ 1 12 км {дождь} 9/5 360 м
[Sc Ac trans]
+24.6 +23.0 91 +33 +36 очень
душно
1016.3 992.9
12 19.07 ЮЗ 1 12 км {дождь} 9/5 360 м
[Sc Ac trans]
+26.0 +23.9 88 +36 +42 очень
душно
1016.0 992.7 2
15 19.07 ЮЗ 2 12 км 9/5 360 м
[Cu Sc Ac trans]
+27.4 +24.1 82 +38 +41 очень
душно
1013.3 990.2
09 20.07 ЮВ 2 12 км 9/0
[Ac trans]
+26.6 +24.1 86 +37 +42 очень
душно
1016.0 992.8
12 20.07 ЮЗ 2 12 км 8/6 450 м
[Cu med, cong Ac trans]
+29.3 +23.5 71 +40 +46 очень
душно
1014.5 991.5
15 20.07 СЗ 2 12 км 8/5 540 м
[Cu med, cong Ac trans]
+31.0 +24.2 67 +43 +47 опасность
перегрева
1012.7 989.9
21 20.07 СЗ 2 12 км зарница 9/6 360 м
[Cb cap Ac trans]
+26.1 +23.0 83 +35 +35 очень
душно
1013.6 990.4
00 21.07 СЗ 2 12 км 9/4 360 м
[Sc Ac trans]
+25.6 +23.5 88 +35 +35 очень
душно
1013.9 990.6
09 21.07 ЮЗ 2 12 км 9/5 360 м
[Cu Sc Ac trans]
+26.0 +22.9 83 +35 +38 очень
душно
1015.2 991.9
12 21.07 ЮЗ 1 12 км 8/5 500 м
[Cu med, cong Ac trans]
+28.6 +23.5 74 +39 +47 очень
душно
1015.0 991.9
15 21.07 ЮЗ 1 12 км 5/5 500 м
[Cu med, cong]
+31.6 +24.1 65 +44 +51 опасность
перегрева
1011.9 989.1
18 21.07 ЮВ 1 12 км 6/5 480 м
[Cb cap Ac trans]
+31.0 +23.6 65 +42 +42 опасность
перегрева
1010.6 987.8 +32.0
21 21.07 ЮЗ 1 12 км зарница 8/4 360 м
[Cb cap Ac trans]
+28.0 +24.2 80 +39 +39 очень
душно
1011.1 988.1
00 22.07 ЮЗ 1 12 км 8/1 360 м
[Sc Ac trans]
+27.0 +23.9 83 +37 +37 очень
душно
1013.5 990.3
06 22.07 ЮЗ 1 12 км 8/0
[Ac trans Cs]
+24.6 +23.5 94 +33 +33 очень
душно
1013.5 990.2 +23.7
09 22.07 СВ 2 12 км 9/4 540 м
[Cu med, cong Ac trans Cs]
+28.0 +24.6 82 +40 +44 очень
душно
1015.7 992.6
12 22.07 штиль 0 12 км н/о +30.0 +24.6 73 +43 +43 опасность
перегрева
1015.1 992.1
15 22.07 ЮЗ 3 12 км 8/4 540 м
[Cu med, cong Cs]
+31.5 +23.3 62 +42 +47 опасность
перегрева
1011.8 989.0
18 22.07 ЮВ 2 12 км 6/3 480 м
[Cu hum Cs]
+31.0 +23.7 65 +42 +42 опасность
перегрева
1010.7 987.9 +31.5
21 22.07 ЮЗ 2 12 км 5/0
[Ac trans Ci fib]
+27.6 +24.3 82 +39 +39 очень
душно
1011.5 988.4
00 23.07 ЮВ 2 12 км 6/0
[Ac trans]
+26.6 +24.1 86 +37 +37 очень
душно
1012.9 989.7
06 23.07 ЮЗ 2 12 км 8/0
[Ac trans]
+25.8 +24.2 91 +36 +36 очень
душно
1013.1 989.9 +23.5
09 23.07 ЮЗ 3 12 км 9/6 360 м
[Cu Sc Ac trans]
+27.0 +24.5 86 +38 +40 очень
душно
1014.9 991.7
12 23.07 ЮЗ 3 12 км 8/8 360 м
[Cu Sc]
+30.3 +24.5 71 +43 +46 опасность
перегрева
1013.2 990.3

 

Местоположение метеостанции Навронго (Гана): широта 10.90 долгота -1.10 высота над уровнем моря 203 м.

В архиве по умолчанию представлена погода в Навронго за последнюю неделю. Архивные данные за месяц целиком и за предыдущие месяцы, начиная с января 2011 года, Вы можете получить, выбрав интересующий диапазон дат из раскрывающегося списка и нажав кнопку "Ввод!".


*Определитесь, кто Вы:
робот инопланетянин человек

Внимание! Время в таблицах - всемирное. Для получения местного времени необходимо прибавить поправку, которая равна 1 ч.

Смотрите также архив погоды в соседних городах и на ближайших метеорологических станциях:

Погода в По (Буркина-Фасо) (28 км)
Погода в Тамале (Гана) (158 км)
Погода в Дапаоне (Того) (158 км)
Погода в Уагадугу (Буркина-Фасо) (168 км)
Погода в Ва (Гана) (180 км)
Погода в Манго (Того) (181 км)
Погода в Йенди (Гана) (200 км)
Погода в Фада-Нгурме (Буркина-Фасо) (204 км)
Погода в Боромо (Буркина-Фасо) (221 км)
Погода в Гауа (Буркина-Фасо) (236 км)

Пояснения к столбцам:

Ветер - указаны скорость ветра в м/с - средняя за 10 мин, порывы в срок и между сроками (в фигурных скобках) и направление, откуда дует ветер: С - северный, СВ - северо-восточный, В - восточный, ЮВ - юго-восточный, Ю - южный, ЮЗ - юго-западный, З - западный, СЗ - северо-западный.
Видимость - горизонтальная дальность видимости в метрах или километрах. При видимости от 1 до 10 км при отсутствии осадков обычно наблюдается дымка, при ухудшении видимости до 1 км и менее - туман. В сухую погоду видимость может ухудшаться дымом, пылью или мглою.
Явления - указаны атмосферные явления, наблюдавшиеся в срок или в последний час перед сроком; фигурными скобками обозначены явления, наблюдавшиеся между сроками (за 1-3 часа до срока); квадратными скобками обозначены град или гололедные отложения с указанием их диаметра в мм.
Облачность - указаны через наклонную черту общая и нижняя облачность в баллах и высота нижней границы облаков в метрах; квадратными скобками обозначены формы облаков: Ci - перистые, Cs - перисто-слоистые, Cc - перисто-кучевые, Ac - высококучевые, As - высокослоистые, Sc - слоисто-кучевые, Ns - слоисто-дождевые, Cu - кучевые, Cb - кучево-дождевые. Подробнее классификацию облаков см. в Атласе облаков (PDF).
T - Температура воздуха - температура, измеренная на высоте 2 м над землей.
Td - Температура точки росы - температура, при понижении до которой содержащийся в воздухе водяной пар достигнет насыщения.
f - Относительная влажность воздуха - влажноcть воздуха, измеренная на высоте 2 м над землей.
Te - Эффективная температура - температура, которую ощущает одетый по сезону человек в тени. Характеристика душности погоды. При расчете учитывается влияние влажности воздуха и скорости ветра на теплоощущения человека.
Tes - Эффективная температура на солнце - температура, которую ощущает человек, с поправкой на солнечный нагрев. Характеристика знойности погоды. Зависит от высоты солнца над горизонтом, облачности и скорости ветра. Ночью, в пасмурную погоду, а также при ветре 12 м/с и более поправка равна нулю.
P - Атмосферное давление - приведенное к уровню моря атмосферное давление.
Po - Атмосферное давление - измеренное на уровне метеостанции атмосферное давление.
Tmin - Минимальная температура - минимум температуры воздуха на высоте 2 м над землей.
Tmax - Максимальная температура - максимум температуры воздуха на высоте 2 м над землей.
R - Количество осадков - Количество выпавших осадков за период времени, мм. При наведении курсора мыши на число - период времени, за который выпало указанное количество осадков.
R24 - Количество осадков - Количество выпавших осадков за 24 часа, мм.
S - Снежный покров - Высота снежного покрова, см. При наведении курсора мыши на число - состояние снежного покрова и степень покрытия местности в баллах.